Radiation Dose at Monitoring Post of Fukushima Daini Nuclear Power Station
Date,Time,MP-1(microSv/h),MP-2(microSv/h),MP-3(microSv/h),MP-4(microSv/h),MP-5(microSv/h),MP-6(microSv/h),MP-7(microSv/h),Wind Direction,Wind Velocity(m/s),Rain
2022/01/30,00:00,0.160,0.147,0.229,0.223,0.225,0.127,0.080,west-northwest,10.8,No
2022/01/30,00:10,0.159,0.147,0.231,0.223,0.224,0.127,0.081,west-northwest,10.4,No
2022/01/30,00:20,0.159,0.147,0.230,0.223,0.224,0.127,0.080,west-northwest,9.9,No
2022/01/30,00:30,0.159,0.147,0.231,0.223,0.224,0.127,0.080,west-northwest,10.6,No
2022/01/30,00:40,0.160,0.146,0.230,0.223,0.225,0.126,0.079,west-northwest,10.0,No
2022/01/30,00:50,0.161,0.147,0.231,0.223,0.225,0.127,0.080,west-northwest,9.2,No
2022/01/30,01:00,0.160,0.147,0.230,0.222,0.224,0.127,0.080,west-northwest,9.1,No
2022/01/30,01:10,0.161,0.147,0.230,0.223,0.223,0.127,0.080,west-northwest,8.9,No
2022/01/30,01:20,0.160,0.147,0.230,0.223,0.224,0.127,0.080,west-northwest,10.2,No
2022/01/30,01:30,0.159,0.147,0.230,0.223,0.225,0.127,0.080,west-northwest,9.1,No
2022/01/30,01:40,0.161,0.147,0.231,0.223,0.226,0.127,0.080,northwest,6.6,No
2022/01/30,01:50,0.159,0.146,0.231,0.223,0.225,0.127,0.081,west-northwest,6.0,No
2022/01/30,02:00,0.160,0.146,0.231,0.224,0.225,0.127,0.081,northwest,5.9,No
2022/01/30,02:10,0.160,0.147,0.230,0.223,0.225,0.127,0.080,north-northwest,6.3,No
2022/01/30,02:20,0.160,0.147,0.230,0.223,0.225,0.128,0.080,northwest,6.0,No
2022/01/30,02:30,0.160,0.148,0.231,0.223,0.224,0.126,0.081,northwest,6.9,No
2022/01/30,02:40,0.160,0.147,0.232,0.223,0.225,0.126,0.080,northwest,7.4,No
2022/01/30,02:50,0.160,0.146,0.231,0.222,0.225,0.127,0.080,northwest,8.3,No
2022/01/30,03:00,0.161,0.148,0.229,0.224,0.225,0.127,0.080,northwest,8.6,No
2022/01/30,03:10,0.160,0.148,0.231,0.223,0.225,0.127,0.080,northwest,8.5,No
2022/01/30,03:20,0.160,0.148,0.231,0.223,0.226,0.127,0.081,northwest,8.0,No
2022/01/30,03:30,0.161,0.147,0.230,0.224,0.224,0.127,0.080,northwest,7.2,No
2022/01/30,03:40,0.160,0.147,0.231,0.223,0.225,0.127,0.081,northwest,7.9,No
2022/01/30,03:50,0.161,0.148,0.231,0.223,0.225,0.127,0.080,northwest,7.7,No
2022/01/30,04:00,0.160,0.147,0.230,0.222,0.225,0.127,0.081,northwest,7.2,No
2022/01/30,04:10,0.161,0.146,0.231,0.223,0.225,0.126,0.080,northwest,8.3,No
2022/01/30,04:20,0.159,0.147,0.230,0.222,0.225,0.126,0.079,northwest,7.4,No
2022/01/30,04:30,0.160,0.147,0.231,0.224,0.224,0.127,0.081,northwest,9.1,No
2022/01/30,04:40,0.161,0.148,0.230,0.223,0.226,0.128,0.081,northwest,9.8,No
2022/01/30,04:50,0.161,0.149,0.230,0.223,0.225,0.127,0.080,northwest,8.6,No
2022/01/30,05:00,0.161,0.148,0.231,0.223,0.225,0.127,0.081,northwest,8.6,No
2022/01/30,05:10,0.161,0.147,0.230,0.223,0.225,0.127,0.081,northwest,8.6,No
2022/01/30,05:20,0.160,0.147,0.232,0.223,0.225,0.127,0.080,northwest,8.3,No
2022/01/30,05:30,0.160,0.147,0.232,0.224,0.225,0.128,0.080,northwest,6.8,No
2022/01/30,05:40,0.160,0.147,0.230,0.223,0.226,0.128,0.081,northwest,6.1,No
2022/01/30,05:50,0.161,0.148,0.230,0.224,0.225,0.127,0.081,northwest,5.7,No
2022/01/30,06:00,0.161,0.147,0.231,0.221,0.224,0.126,0.081,northwest,5.4,No
2022/01/30,06:10,0.161,0.147,0.231,0.223,0.225,0.127,0.080,northwest,4.9,No
2022/01/30,06:20,0.160,0.146,0.231,0.224,0.226,0.126,0.081,northwest,4.8,No
2022/01/30,06:30,0.160,0.148,0.230,0.224,0.225,0.127,0.080,north-northwest,4.6,No
2022/01/30,06:40,0.160,0.148,0.230,0.224,0.225,0.127,0.080,north-northwest,4.6,No
2022/01/30,06:50,0.159,0.147,0.230,0.224,0.225,0.127,0.081,north-northwest,4.4,No
2022/01/30,07:00,0.160,0.147,0.230,0.222,0.225,0.126,0.081,north-northwest,3.3,No
2022/01/30,07:10,0.160,0.146,0.230,0.222,0.224,0.126,0.080,northwest,5.2,No
2022/01/30,07:20,0.160,0.147,0.231,0.223,0.224,0.127,0.080,northwest,3.8,No
2022/01/30,07:30,0.159,0.147,0.230,0.223,0.224,0.127,0.080,north-northwest,4.6,No
2022/01/30,07:40,0.160,0.147,0.231,0.223,0.223,0.126,0.081,northwest,4.8,No
2022/01/30,07:50,0.159,0.147,0.231,0.223,0.224,0.126,0.080,northwest,4.6,No
2022/01/30,08:00,0.160,0.146,0.230,0.223,0.224,0.127,0.081,northwest,4.1,No
2022/01/30,08:10,0.160,0.146,0.231,0.222,0.225,0.127,0.080,northwest,3.7,No
2022/01/30,08:20,0.160,0.147,0.229,0.222,0.224,0.127,0.080,north-northwest,3.8,No
2022/01/30,08:30,0.160,0.147,0.231,0.222,0.225,0.127,0.080,north,2.5,No
2022/01/30,08:40,0.159,0.146,0.230,0.223,0.224,0.127,0.080,north-northwest,2.5,No
2022/01/30,08:50,0.160,0.148,0.231,0.223,0.224,0.126,0.080,north,2.7,No
2022/01/30,09:00,0.160,0.147,0.229,0.223,0.225,0.126,0.081,northwest,2.4,No
2022/01/30,09:10,0.160,0.147,0.230,0.222,0.225,0.128,0.080,north,1.6,No
2022/01/30,09:20,0.159,0.146,0.229,0.223,0.225,0.127,0.080,northwest,2.9,No
2022/01/30,09:30,0.160,0.147,0.228,0.222,0.224,0.126,0.080,north,2.7,No
2022/01/30,09:40,0.161,0.146,0.230,0.223,0.224,0.126,0.080,north,2.2,No
2022/01/30,09:50,0.161,0.146,0.230,0.223,0.225,0.127,0.081,north,3.2,No
2022/01/30,10:00,0.160,0.147,0.231,0.224,0.224,0.126,0.080,north-northwest,2.7,No
2022/01/30,10:10,0.160,0.147,0.229,0.223,0.225,0.127,0.080,north-northwest,3.2,No
2022/01/30,10:20,0.160,0.147,0.230,0.223,0.223,0.126,0.080,north-northwest,3.0,No
2022/01/30,10:30,0.160,0.147,0.231,0.222,0.224,0.126,0.080,west,2.4,No
2022/01/30,10:40,0.159,0.147,0.231,0.222,0.226,0.127,0.080,southwest,2.4,No
2022/01/30,10:50,0.160,0.146,0.228,0.223,0.225,0.126,0.081,west-southwest,3.5,No
2022/01/30,11:00,0.160,0.146,0.230,0.222,0.225,0.127,0.080,west,3.0,No
2022/01/30,11:10,0.159,0.146,0.228,0.222,0.226,0.128,0.080,west-southwest,5.1,No
2022/01/30,11:20,0.159,0.147,0.228,0.224,0.223,0.127,0.080,northwest,3.5,No
2022/01/30,11:30,0.159,0.146,0.230,0.223,0.226,0.127,0.080,west-northwest,3.3,No
2022/01/30,11:40,0.159,0.146,0.230,0.222,0.226,0.126,0.080,northwest,2.9,No
2022/01/30,11:50,0.159,0.147,0.229,0.223,0.224,0.127,0.080,west-northwest,3.0,No
2022/01/30,12:00,0.159,0.145,0.230,0.222,0.225,0.128,0.081,north-northwest,3.2,No
2022/01/30,12:10,0.159,0.146,0.231,0.223,0.224,0.126,0.081,north,1.6,No
2022/01/30,12:20,0.160,0.147,0.229,0.223,0.226,0.127,0.080,north-northeast,2.5,No
2022/01/30,12:30,0.161,0.147,0.230,0.224,0.225,0.127,0.080,north-northwest,2.4,No
2022/01/30,12:40,0.159,0.146,0.230,0.221,0.226,0.127,0.081,north-northwest,4.3,No
2022/01/30,12:50,0.160,0.148,0.231,0.222,0.226,0.126,0.079,northwest,3.5,No
2022/01/30,13:00,0.160,0.146,0.230,0.221,0.225,0.127,0.080,west-northwest,6.2,No
2022/01/30,13:10,0.159,0.145,0.229,0.222,0.226,0.127,0.079,northwest,4.8,No
2022/01/30,13:20,0.159,0.146,0.230,0.222,0.225,0.127,0.081,north-northwest,3.3,No
2022/01/30,13:30,0.160,0.146,0.229,0.222,0.224,0.127,0.080,west-northwest,4.1,No
2022/01/30,13:40,0.158,0.146,0.231,0.222,0.226,0.126,0.080,west-northwest,8.9,No
2022/01/30,13:50,0.160,0.146,0.229,0.223,0.222,0.126,0.080,west-northwest,9.4,No
2022/01/30,14:00,0.158,0.146,0.229,0.222,0.225,0.128,0.081,west-northwest,9.2,No
2022/01/30,14:10,0.160,0.147,0.230,0.223,0.224,0.127,0.079,west-northwest,7.7,No
2022/01/30,14:20,0.160,0.147,0.231,0.224,0.226,0.127,0.080,west-northwest,7.0,No
2022/01/30,14:30,0.159,0.146,0.230,0.222,0.225,0.126,0.080,west-northwest,9.1,No
2022/01/30,14:40,0.159,0.146,0.231,0.223,0.224,0.127,0.081,northwest,6.3,No
2022/01/30,14:50,0.161,0.147,0.230,0.223,0.224,0.125,0.080,west-northwest,7.9,No
2022/01/30,15:00,0.160,0.146,0.231,0.223,0.227,0.126,0.080,west-northwest,9.9,No
2022/01/30,15:10,0.159,0.147,0.230,0.223,0.224,0.126,0.080,west-northwest,8.9,No
2022/01/30,15:20,0.160,0.148,0.230,0.223,0.225,0.126,0.081,west-northwest,4.9,No
2022/01/30,15:30,0.161,0.148,0.230,0.224,0.226,0.126,0.080,northwest,4.4,No
2022/01/30,15:40,0.161,0.146,0.231,0.223,0.225,0.127,0.080,northwest,5.2,No
2022/01/30,15:50,0.160,0.146,0.231,0.223,0.225,0.127,0.081,northwest,3.7,No
2022/01/30,16:00,0.160,0.147,0.230,0.223,0.225,0.127,0.081,north,3.0,No
2022/01/30,16:10,0.160,0.148,0.232,0.223,0.225,0.126,0.080,northwest,2.9,No
2022/01/30,16:20,0.159,0.147,0.230,0.224,0.225,0.127,0.080,northwest,2.5,No
2022/01/30,16:30,0.161,0.147,0.231,0.224,0.224,0.127,0.080,west-northwest,1.6,No
2022/01/30,16:40,0.160,0.147,0.231,0.224,0.224,0.126,0.081,west-northwest,4.4,No
2022/01/30,16:50,0.159,0.147,0.229,0.222,0.225,0.127,0.080,northwest,4.7,No
2022/01/30,17:00,0.161,0.147,0.230,0.224,0.226,0.127,0.080,northwest,3.2,No
2022/01/30,17:10,0.160,0.147,0.231,0.224,0.225,0.127,0.081,north-northwest,2.4,No
2022/01/30,17:20,0.160,0.147,0.230,0.223,0.224,0.127,0.080,northwest,2.2,No
2022/01/30,17:30,0.160,0.147,0.231,0.223,0.226,0.126,0.080,north-northwest,4.1,No
2022/01/30,17:40,0.159,0.147,0.231,0.222,0.224,0.126,0.080,west,5.5,No
2022/01/30,17:50,0.160,0.146,0.231,0.223,0.225,0.127,0.080,west-northwest,5.2,No
2022/01/30,18:00,0.160,0.147,0.230,0.223,0.223,0.127,0.081,north-northwest,4.4,No
2022/01/30,18:10,0.160,0.147,0.231,0.224,0.225,0.127,0.080,northwest,4.4,No
2022/01/30,18:20,0.159,0.145,0.230,0.223,0.225,0.126,0.079,north-northwest,3.3,No
2022/01/30,18:30,0.159,0.147,0.231,0.222,0.225,0.127,0.080,north-northwest,3.2,No
2022/01/30,18:40,0.160,0.147,0.231,0.223,0.225,0.127,0.079,northwest,4.9,No
2022/01/30,18:50,0.160,0.146,0.232,0.223,0.225,0.127,0.080,west-northwest,5.7,No
2022/01/30,19:00,0.160,0.148,0.231,0.222,0.224,0.126,0.080,northwest,6.9,No
2022/01/30,19:10,0.161,0.146,0.231,0.223,0.225,0.126,0.080,northwest,7.6,No
2022/01/30,19:20,0.160,0.147,0.230,0.223,0.224,0.128,0.080,west-northwest,5.2,No
2022/01/30,19:30,0.160,0.147,0.231,0.223,0.224,0.126,0.080,northwest,5.4,No
2022/01/30,19:40,0.159,0.147,0.231,0.224,0.224,0.127,0.080,west-northwest,3.0,No
2022/01/30,19:50,0.160,0.147,0.230,0.222,0.225,0.127,0.080,west-northwest,3.5,No
2022/01/30,20:00,0.160,0.146,0.232,0.224,0.224,0.127,0.080,northwest,4.0,No
2022/01/30,20:10,0.160,0.147,0.231,0.223,0.225,0.127,0.080,west-northwest,3.0,No
2022/01/30,20:20,0.160,0.147,0.230,0.223,0.226,0.127,0.080,west-northwest,4.4,No
2022/01/30,20:30,0.160,0.145,0.232,0.222,0.224,0.126,0.079,west-northwest,2.4,No
2022/01/30,20:40,0.161,0.147,0.230,0.223,0.223,0.127,0.080,west-northwest,3.5,No
2022/01/30,20:50,0.160,0.148,0.231,0.223,0.226,0.126,0.081,northwest,4.0,No
2022/01/30,21:00,0.160,0.147,0.230,0.222,0.225,0.126,0.080,northwest,4.3,No
2022/01/30,21:10,0.159,0.146,0.231,0.224,0.224,0.128,0.081,west-northwest,2.7,No
2022/01/30,21:20,0.159,0.147,0.230,0.223,0.225,0.127,0.081,northwest,3.3,No
2022/01/30,21:30,0.160,0.146,0.230,0.224,0.225,0.126,0.079,northwest,3.0,No
2022/01/30,21:40,0.160,0.147,0.230,0.222,0.225,0.126,0.080,northwest,4.0,No
2022/01/30,21:50,0.160,0.146,0.230,0.222,0.223,0.127,0.081,west-northwest,3.8,No
2022/01/30,22:00,0.161,0.147,0.230,0.222,0.225,0.127,0.080,west-northwest,5.4,No
2022/01/30,22:10,0.160,0.146,0.231,0.223,0.225,0.127,0.080,west-northwest,5.9,No
2022/01/30,22:20,0.159,0.147,0.232,0.222,0.224,0.126,0.081,west-northwest,6.3,No
2022/01/30,22:30,0.160,0.147,0.231,0.222,0.225,0.126,0.079,northwest,4.1,No
2022/01/30,22:40,0.161,0.146,0.229,0.223,0.224,0.126,0.080,northwest,4.1,No
2022/01/30,22:50,0.160,0.147,0.230,0.222,0.224,0.127,0.080,northwest,3.5,No
2022/01/30,23:00,0.160,0.146,0.230,0.223,0.224,0.127,0.080,northwest,3.2,No
2022/01/30,23:10,0.159,0.146,0.230,0.223,0.224,0.127,0.080,west-northwest,3.2,No
2022/01/30,23:20,0.159,0.145,0.230,0.224,0.225,0.126,0.081,west-northwest,4.3,No
2022/01/30,23:30,0.161,0.146,0.231,0.222,0.225,0.127,0.081,northwest,3.5,No
2022/01/30,23:40,0.161,0.146,0.230,0.222,0.224,0.126,0.079,northwest,4.1,No
2022/01/30,23:50,0.160,0.147,0.231,0.222,0.225,0.127,0.079,west-northwest,4.7,No
